Regional Weather Roundup
Issued by NWS

Home | Current Version | Previous Version | Text Only | Print | Product List | Glossary Off
Versions: 1 2 3 4 5 6 7 8 9 10 11 12 13 14 15 16 17 18 19 20 21 22 23 24 25 26 27 28 29 30 31 32 33 34 35 36 37 38 39 40 41 42 43 44 45 46 47 48 49 50

000
ASUS43 KIND 291959
RWRIN

WEATHER ROUNDUP FOR INDIANA
NATIONAL WEATHER SERVICE INDIANAPOLIS IN
400 PM EDT THU SEP 29 2016

NOTE: "FAIR" INDICATES FEW OR NO CLOUDS BELOW 12,000 FEET WITH NO
SIGNIFICANT WEATHER AND/OR OBSTRUCTIONS TO VISIBILITY.

* - STATION DOES NOT REPORT WEATHER SUCH AS PRECIPITATION OR FOG.

+ - STATION NOT QUALITY CONTROLLED BY THE NATIONAL WEATHER SERVICE.
    USE DATA WITH CAUTION...ESPECIALLY DEWPOINT AND RELATIVE
    HUMIDITY OBSERVATIONS.

INZ001>003-010>013-019-020-292100-
NORTHWEST INDIANA

CITY           SKY/WX    TMP DP  RH WIND       PRES   REMARKS
RENSSELAER +   CLOUDY    68  57  68 N9G16     30.11S

$$

LMZ046-743>745-292100-
SOUTHERN LAKE MICHIGAN

STATION/POSITION TIME  TEMP    WIND        PRES    WAVE
                       AIR SEA DIR/SP/G            HT
                 (UTC) (F)     (DEG/KT/KT) (MB)    (FT)
BURNS HARBOR     1940   64      30/ 19/ 25 1021.0S
MICHIGAN CITY    1930   63     360/ 25/ 27   N/A
5NW MICH CITY    1950   64 65   30/ 19/ 25   N/A     8

$$

INZ004-005-014>016-021>024-292100-
NORTH CENTRAL INDIANA

CITY           SKY/WX    TMP DP  RH WIND       PRES   REMARKS
GOSHEN         PTSUNNY   68  53  58 NE13G23   30.13R
SOUTH BEND     CLOUDY    68  57  68 NE13G22   30.14S

$$

INZ006>009-017-018-025>027-292100-
NORTHEAST INDIANA

CITY           SKY/WX    TMP DP  RH WIND       PRES   REMARKS
ANGOLA *+        N/A    N/A N/A N/A E12       30.13S
FORT WAYNE     MOSUNNY   69  53  56 NE14G20   30.11S
KENDALLVILLE + PTSUNNY   69  54  58 E14       30.13S

$$

INZ028-029-035-036-043>045-051>053-292100-
WEST CENTRAL INDIANA

CITY           SKY/WX    TMP DP  RH WIND       PRES   REMARKS
CRAWFORDSVL +  PTSUNNY   65  51  59 N6        30.10R
GREENCASTLE +  CLOUDY    63  54  72 N5        30.09S
LAFAYETTE      PTSUNNY   67  53  61 NE9       30.09S
TERRE HAUTE    CLOUDY    66  51  58 N9        30.09F

$$

INZ030>032-037>040-046>048-054>057-064-065-292100-
CENTRAL INDIANA

CITY           SKY/WX    TMP DP  RH WIND       PRES   REMARKS
ANDERSON       PTSUNNY   66  50  55 NE6       30.09S
COLUMBUS       MOSUNNY   66  54  63 CALM      30.07S
INDIANAPOLIS   PTSUNNY   65  51  60 NE8       30.08S
-EAGLE CREEK   MOSUNNY   67  49  52 E8        30.08S
KOKOMO *+      MOSUNNY   70  52  52 NE14      30.10S
MT COMFORT *+  MOSUNNY   66  52  59 NE6       30.08S
SHELBYVILLE    MOSUNNY   68  48  48 VRB7      30.06F

$$

INZ033-034-041-042-049-050-058-059-292100-
EAST CENTRAL INDIANA

CITY           SKY/WX    TMP DP  RH WIND       PRES   REMARKS
MUNCIE         PTSUNNY   70  50  49 VRB7      30.08S

$$

INZ060-061-067>069-081>083-085>088-292100-
SOUTHWEST INDIANA

CITY           SKY/WX    TMP DP  RH WIND       PRES   REMARKS
EVANSVILLE     PTSUNNY   65  53  65 NW9       30.09F
HUNTINGBURG *+   N/A     66  54  63 NW8       30.08F

$$

INZ062-063-066-070>080-084-089>092-292100-
SOUTH CENTRAL AND SOUTHEAST INDIANA

CITY           SKY/WX    TMP DP  RH WIND       PRES   REMARKS
BLOOMINGTON    PTSUNNY   67  51  56 N7        30.08S
MADISON *+     CLOUDY    61  50  67 E3        30.09S
SEYMOUR +      MOSUNNY   68  50  52 CALM      30.07S

$$





USA.gov is the U.S. government's official web portal to all federal, state and local government web resources and services.